When you browse on this site, cookies collect data to enhance your experience and personalize the content and advertising you see.
Visit our Privacy Policy to learn more. By continuing to use the site, you agree to this use of cookies and data.
  • In Österreich
  • Länderverzeichnis
  • Für 7 Tage
  • Wassertemperatur
  • Satellitenkarten
  • Wetterkarte
  • News
  • Widgets
  • user-avatar
    Anmelden

    Stündliche Wetter Covington

    Heute, 24 Juni, Montag

    Zeit Temperatur Niederschläge Wind Luftdruck Luftfeuchtigkeit
    00:00 +25°C° 0 mm 3 m/S 742 mmHg 92%
    01:00 +24°C° 0 mm 3 m/S 741 mmHg 92%
    02:00 +24°C° 0 mm 3 m/S 741 mmHg 92%
    03:00 +22°C° 0 mm 3 m/S 740 mmHg 92%
    04:00 +22°C° 0 mm 3 m/S 741 mmHg 91%
    05:00 +24°C° 0 mm 3 m/S 741 mmHg 90%
    06:00 +24°C° 0 mm 2 m/S 742 mmHg 89%
    07:00 +25°C° 0.1 mm 3 m/S 741 mmHg 87%
    08:00 +25°C° 0.1 mm 4 m/S 741 mmHg 86%
    09:00 +26°C° 0.1 mm 4 m/S 741 mmHg 84%
    10:00 +26°C° 0.4 mm 4 m/S 741 mmHg 84%
    11:00 +26°C° 0.4 mm 4 m/S 741 mmHg 83%
    12:00 +26°C° 0.4 mm 4 m/S 741 mmHg 83%
    13:00 +25°C° 1 mm 3 m/S 740 mmHg 85%
    14:00 +24°C° 1 mm 3 m/S 740 mmHg 87%
    15:00 +23°C° 1 mm 2 m/S 739 mmHg 89%
    16:00 +24°C° 0.2 mm 2 m/S 740 mmHg 88%
    17:00 +24°C° 0.2 mm 3 m/S 740 mmHg 87%
    18:00 +25°C° 0.2 mm 3 m/S 741 mmHg 85%
    19:00 +24°C° 0.1 mm 3 m/S 741 mmHg 88%
    20:00 +22°C° 0.1 mm 3 m/S 741 mmHg 90%
    21:00 +22°C° 0.1 mm 3 m/S 741 mmHg 92%
    22:00 +21°C° 0 mm 3 m/S 742 mmHg 92%
    23:00 +21°C° 0 mm 3 m/S 742 mmHg 91%

    Morgen, 25 Juni, Dienstag

    Zeit Temperatur Niederschläge Wind Luftdruck Luftfeuchtigkeit
    00:00 +20°C° 0 mm 2 m/S 742 mmHg 91%
    01:00 +20°C° 0 mm 2 m/S 743 mmHg 91%
    02:00 +19°C° 0 mm 2 m/S 743 mmHg 92%
    03:00 +19°C° 0 mm 3 m/S 743 mmHg 93%
    04:00 +19°C° 0 mm 3 m/S 744 mmHg 91%
    05:00 +19°C° 0 mm 3 m/S 744 mmHg 90%
    06:00 +19°C° 0 mm 3 m/S 745 mmHg 89%
    07:00 +21°C° 0 mm 3 m/S 745 mmHg 81%
    08:00 +24°C° 0 mm 3 m/S 746 mmHg 73%
    09:00 +26°C° 0 mm 4 m/S 746 mmHg 65%
    10:00 +27°C° 0 mm 4 m/S 746 mmHg 60%
    11:00 +28°C° 0 mm 4 m/S 747 mmHg 55%
    12:00 +29°C° 0 mm 4 m/S 747 mmHg 50%
    13:00 +29°C° 0 mm 4 m/S 747 mmHg 51%
    14:00 +30°C° 0 mm 4 m/S 747 mmHg 51%
    15:00 +30°C° 0 mm 4 m/S 747 mmHg 52%
    16:00 +29°C° 0 mm 3 m/S 747 mmHg 57%
    17:00 +28°C° 0 mm 3 m/S 747 mmHg 63%
    18:00 +27°C° 0 mm 2 m/S 747 mmHg 69%
    19:00 +25°C° 0 mm 2 m/S 747 mmHg 73%
    20:00 +24°C° 0 mm 2 m/S 747 mmHg 77%
    21:00 +23°C° 0 mm 2 m/S 747 mmHg 81%
    22:00 +21°C° 0 mm 2 m/S 747 mmHg 83%
    23:00 +21°C° 0 mm 2 m/S 747 mmHg 86%

    übermorgen, 26 Juni, Mittwoch

    Zeit Temperatur Niederschläge Wind Luftdruck Luftfeuchtigkeit
    00:00 +20°C° 0 mm 2 m/S 748 mmHg 88%
    01:00 +20°C° 0 mm 2 m/S 748 mmHg 89%
    02:00 +20°C° 0 mm 2 m/S 748 mmHg 90%
    03:00 +20°C° 0 mm 2 m/S 748 mmHg 90%
    04:00 +20°C° 0 mm 2 m/S 748 mmHg 88%
    05:00 +21°C° 0 mm 3 m/S 748 mmHg 86%
    06:00 +22°C° 0 mm 3 m/S 749 mmHg 85%
    07:00 +25°C° 0 mm 3 m/S 749 mmHg 79%
    08:00 +26°C° 0 mm 3 m/S 749 mmHg 73%
    09:00 +28°C° 0 mm 4 m/S 749 mmHg 67%
    10:00 +30°C° 0 mm 4 m/S 749 mmHg 64%
    11:00 +32°C° 0 mm 4 m/S 749 mmHg 61%
    12:00 +33°C° 0 mm 4 m/S 749 mmHg 58%
    13:00 +34°C° 0.1 mm 4 m/S 749 mmHg 58%
    14:00 +34°C° 0.1 mm 4 m/S 748 mmHg 58%
    15:00 +34°C° 0.1 mm 4 m/S 748 mmHg 58%
    16:00 +32°C° 0.6 mm 4 m/S 748 mmHg 64%
    17:00 +30°C° 0.6 mm 3 m/S 748 mmHg 70%
    18:00 +29°C° 0.6 mm 3 m/S 749 mmHg 76%
    19:00 +28°C° 0.1 mm 2 m/S 749 mmHg 79%
    20:00 +27°C° 0.1 mm 2 m/S 749 mmHg 82%
    21:00 +25°C° 0.1 mm 1 m/S 749 mmHg 85%
    22:00 +25°C° 0 mm 1 m/S 749 mmHg 86%
    23:00 +25°C° 0 mm 1 m/S 749 mmHg 88%

    27 Juni, Donnerstag

    Zeit Temperatur Niederschläge Wind Luftdruck Luftfeuchtigkeit
    00:00 +24°C° 0 mm 1 m/S 749 mmHg 90%
    01:00 +24°C° 0 mm 1 m/S 749 mmHg 90%
    02:00 +24°C° 0 mm 1 m/S 750 mmHg 91%
    03:00 +23°C° 0 mm 1 m/S 750 mmHg 91%
    04:00 +22°C° 0 mm 0 m/S 750 mmHg 90%
    05:00 +22°C° 0 mm 0 m/S 750 mmHg 89%
    06:00 +23°C° 0 mm 0 m/S 751 mmHg 88%
    07:00 +25°C° 0 mm 0 m/S 751 mmHg 79%
    08:00 +27°C° 0 mm 0 m/S 751 mmHg 71%
    09:00 +29°C° 0 mm 0 m/S 752 mmHg 63%
    10:00 +32°C° 0 mm 1 m/S 752 mmHg 58%
    11:00 +33°C° 0 mm 1 m/S 751 mmHg 53%
    12:00 +34°C° 0 mm 1 m/S 751 mmHg 48%
    13:00 +35°C° 0.1 mm 2 m/S 751 mmHg 49%
    14:00 +35°C° 0.1 mm 2 m/S 751 mmHg 50%
    15:00 +35°C° 0.1 mm 2 m/S 751 mmHg 51%
    16:00 +34°C° 0.2 mm 2 m/S 750 mmHg 58%
    17:00 +32°C° 0.2 mm 1 m/S 750 mmHg 65%
    18:00 +30°C° 0.2 mm 1 m/S 750 mmHg 72%
    19:00 +29°C° 0 mm 1 m/S 750 mmHg 76%
    20:00 +27°C° 0 mm 1 m/S 750 mmHg 79%
    21:00 +26°C° 0 mm 1 m/S 750 mmHg 83%
    22:00 +26°C° 0 mm 1 m/S 751 mmHg 84%
    23:00 +23°C° 0 mm 0 m/S 751 mmHg 84%

    28 Juni, Freitag

    Zeit Temperatur Niederschläge Wind Luftdruck Luftfeuchtigkeit
    00:00 +23°C° 0 mm 0 m/S 751 mmHg 85%
    01:00 +24°C° 0 mm 1 m/S 751 mmHg 86%
    02:00 +24°C° 0 mm 1 m/S 751 mmHg 87%
    03:00 +24°C° 0 mm 1 m/S 751 mmHg 88%
    04:00 +24°C° 0 mm 1 m/S 751 mmHg 87%
    05:00 +25°C° 0 mm 1 m/S 751 mmHg 85%
    06:00 +25°C° 0 mm 1 m/S 751 mmHg 84%
    07:00 +27°C° 0 mm 1 m/S 751 mmHg 77%
    08:00 +29°C° 0 mm 2 m/S 752 mmHg 70%
    09:00 +31°C° 0 mm 2 m/S 752 mmHg 62%
    10:00 +33°C° 0.1 mm 3 m/S 752 mmHg 57%
    11:00 +34°C° 0.1 mm 3 m/S 752 mmHg 52%
    12:00 +36°C° 0.1 mm 3 m/S 751 mmHg 46%
    13:00 +36°C° 0 mm 3 m/S 751 mmHg 47%
    14:00 +36°C° 0 mm 3 m/S 750 mmHg 47%
    15:00 +36°C° 0 mm 3 m/S 750 mmHg 47%
    16:00 +34°C° 0 mm 2 m/S 750 mmHg 54%
    17:00 +32°C° 0 mm 2 m/S 750 mmHg 60%
    18:00 +31°C° 0 mm 2 m/S 750 mmHg 67%
    19:00 +29°C° 0.2 mm 1 m/S 750 mmHg 70%
    20:00 +28°C° 0.2 mm 1 m/S 750 mmHg 74%
    21:00 +27°C° 0.2 mm 1 m/S 750 mmHg 78%
    22:00 +26°C° 0.1 mm 1 m/S 750 mmHg 79%
    23:00 +26°C° 0.1 mm 1 m/S 750 mmHg 80%

    29 Juni, Samstag

    Zeit Temperatur Niederschläge Wind Luftdruck Luftfeuchtigkeit
    00:00 +25°C° 0.1 mm 1 m/S 750 mmHg 82%
    01:00 +25°C° 0.6 mm 1 m/S 750 mmHg 84%
    02:00 +24°C° 0.6 mm 1 m/S 750 mmHg 86%
    03:00 +24°C° 0.6 mm 1 m/S 750 mmHg 87%
    04:00 +24°C° 0 mm 1 m/S 750 mmHg 87%
    05:00 +25°C° 0 mm 1 m/S 750 mmHg 87%
    06:00 +25°C° 0 mm 1 m/S 750 mmHg 86%
    07:00 +27°C° 0.2 mm 2 m/S 750 mmHg 81%
    08:00 +28°C° 0.2 mm 2 m/S 750 mmHg 76%
    09:00 +30°C° 0.2 mm 2 m/S 750 mmHg 71%
    10:00 +31°C° 0.4 mm 2 m/S 750 mmHg 64%
    11:00 +34°C° 0.4 mm 3 m/S 750 mmHg 57%
    12:00 +35°C° 0.4 mm 3 m/S 750 mmHg 51%
    13:00 +35°C° 0.1 mm 3 m/S 750 mmHg 52%
    14:00 +35°C° 0.1 mm 3 m/S 749 mmHg 53%
    15:00 +34°C° 0.1 mm 3 m/S 749 mmHg 54%
    16:00 +32°C° 0.1 mm 2 m/S 749 mmHg 60%
    17:00 +31°C° 0.1 mm 2 m/S 748 mmHg 65%
    18:00 +30°C° 0.1 mm 2 m/S 748 mmHg 71%
    19:00 +29°C° 0 mm 2 m/S 748 mmHg 74%
    20:00 +28°C° 0 mm 2 m/S 748 mmHg 77%
    21:00 +27°C° 0 mm 1 m/S 749 mmHg 79%
    22:00 +26°C° 0 mm 1 m/S 748 mmHg 82%
    23:00 +26°C° 0 mm 1 m/S 748 mmHg 84%
    Mehr zeigen